Probability
0 0 0 0 0 0 0 0 0 0 0 0 0 0 0 0 0 0 0 0 0 0 0 0 0 0 0 0 0 0 0 0 0 0 0 0 0 0
0 0 0 0 0 0 0 0 0 0 0 0 0 0 0 0 0 0 0 0 0 0 0 0 0 0 0 0 0 0 0 0 0 0 0 0 0 0
0 0 0 0 0 0 0 0 0 0 0 0 0 0 0 0 0 0 0 0 0 0 0 0 0 0 0 0 0 0 0 0 0 0 0 0 0 0
0 0 0 0 0 0 0 0 0 0 0 0 0 0 0 0 0 0 0 0 0 0 0 0 0 0 0 0 0 0 0 0 0 0 0 0 0 0
0 0 0 0 0 0 0 0 0 0 0 0 0 0 0 0 0 0 0 0 0 0 0 0 0 0 0 0 0 0 0 0 0 0 0 0 0 0
0 0 0 0 0 0 0 0 0 0 0 0 0 0 0 0 0 0 0 0 0 0 0 0 0 0 0 0 0 0 0 0 0 0 0 0 0 0
0 0 0 0 0 0 0 0 0 0 0 0 0 0 0 0 0 0 0 0 0 0 0 0 0 0 0 0 0 0 0 0 0 0 0 0 0 0
0 0 0 0 0 0 0 0 0 0 0 0 0 0 0 0 0 0 0 0 0 0 0 0 0 0 0 0 0 0 0 0 0 0 0 0 0 0
0 0 0 0 0 0 0 0 0 0 0 0 0 0 0 0 0 0 0 0 0 0 0 0 0 0 0 0 0 0 0 0 0 0 0 0 0 0
0 0 0 0 0 0 0 0 0 0 0 0 0 0 0 0 0 0 0 0 0 0 0 0 0 0 0 0 0 0 0 0 0 0 0 0 0 0
0 0 0 0 0 0 0 0 0 0 0 0 0 0 0 0 0 0 0 0 0 0 0 0 0 0 0 0 0 0 0 0 0 0 0 0 0 0
0 0 0 0 0 0 0 0 0 0 0 0 0 0 0 0 0 0 0 0 0 0 0 0 0 0 0 0 0 0 0 0 0 0 0 0 0 0
0 0 0 0 0 0 0 0 0 0 0 0 0 0 0 0 0 0 0 0 0 0 0 0 0 0 0 0 0 0 0 0 0 0 0 0 0 0
0 0 0 0 0 0 0 0 0 0 0 0 0 0 0 0 0 0 0 0 0 0 0 0 0 0 0 0 0 0 0 0 0 0 0 0 0 0
0 0 0 0 0 0 0 0 0 0 0 0 0 0 0 0 0 0 0 0 0 0 0 0 0 0 0 0 0 0 0 0 0 0 0 0 0 0
0 0 0 0 0 0 0 0 0 0 0 0 0 0 0 0 0 0 0 0 0 0 0 0 0 0 0 0 0 0 0 0 0 0 0 0 0 0
0 0 0 0 0 0 0 0 0 0 0 0 0 0 0 0 0 0 0 0 0 0 0 0 0 0 0 0 0 0 0 0 0 0 0 0 0 0
0 0 0 0 0 0 0 0 0 0 0 0 0 0 0 0 0 0 0 0 0 0 0 0 0 0 0 0 0 0 0 0 0 0 0 0 0 0
0 0 0 0 0 0 0 0 0 0 0 0 0 0 0 0 0 0 0 0 0 0 0 0 0 0 0 0 0 0 0 0 0 0 0 0 0 0
0 0 0 0 0 0 0 0 0 0 0 0 0 0 0 0 0 0 0 0 0 0 0 0 0 0 0 0 0 0 0 0 0 0 0 0 0 0
0 0 0 0 0 0 0 0 0 0 0 0 0 0 0 0 0 0 0 0 0 0 0 0 0 0 0 0 0 0 0 0 0 0 0 0 0 0
0 0 0 0 0 0 0 0 0 0 0 0 0 0 0 0 0 0 0 0 0 0 0 0 0 0 0 0 0 0 0 0 0 0 0 0 0 0
0 0 0 0 0 0 0 0 0 0 0 0 0 0 0 0 0 0 0 0 0 0 0 0 0 0 0 0 0 0 0 0 0 0 0 0 0 0
Wind_Speed
5 5 4 4 4 5 7 7 11 15 15 11 8 5 2 4 9 10 8 16 26 29 31 32 32 34 33 31 32 31 30 32 34 34 35 33 32 32
5 5 5 4 6 8 7 7 7 10 16 16 10 7 6 7 13 13 10 19 23 29 31 33 36 36 32 32 33 33 34 34 36 35 35 35 33 32
6 5 6 7 8 8 8 8 8 8 12 17 12 10 10 9 11 10 10 9 12 26 34 37 36 34 33 33 34 35 34 33 33 33 33 33 33 31
6 5 6 8 10 9 9 10 10 10 10 13 15 12 12 12 9 9 10 11 12 23 33 34 32 32 32 33 32 31 28 29 30 31 31 30 30 31
6 6 7 9 10 10 11 10 9 8 9 11 15 14 13 8 9 11 13 13 13 20 26 27 28 29 30 29 29 29 29 30 29 29 29 29 30 30
6 6 7 8 11 12 12 10 10 12 12 11 12 13 11 8 11 13 14 13 13 11 15 17 22 25 27 30 31 30 28 28 29 29 28 27 27 28
6 7 8 12 19 19 15 13 14 12 11 10 13 11 9 12 12 12 14 13 11 9 10 10 10 12 14 20 23 26 28 29 30 29 28 28 28 27
8 8 9 13 16 21 25 26 24 20 17 14 12 12 13 12 12 12 13 11 15 9 9 12 10 12 11 12 23 30 32 32 31 30 30 30 30 28
9 10 10 10 15 13 20 25 23 24 22 17 14 15 14 14 14 14 12 13 12 10 10 13 11 11 12 14 28 33 33 32 32 31 32 32 31 31
9 10 10 11 12 18 17 15 12 11 14 13 13 14 14 14 14 14 14 13 12 10 10 14 13 12 13 14 26 33 32 32 31 31 30 28 27 27
8 8 11 13 21 29 20 13 11 12 15 20 21 23 26 26 21 13 11 11 12 11 11 13 14 14 14 13 16 26 29 30 31 31 31 30 28 25
9 9 17 21 27 27 19 14 13 15 13 11 13 16 17 17 21 14 11 11 12 13 12 11 12 12 12 9 9 10 14 22 28 29 30 29 26 15
9 9 10 22 26 27 23 14 17 17 14 12 11 11 10 10 11 11 10 10 12 12 15 15 11 10 11 11 11 9 10 11 13 16 20 24 25 20
9 9 11 22 26 25 19 22 25 19 10 10 10 11 11 11 11 12 13 12 13 15 17 16 11 12 12 15 14 11 10 11 11 10 9 14 19 22
11 14 18 22 20 16 21 24 18 10 9 10 11 11 11 12 12 12 12 13 13 14 14 13 10 11 10 12 11 12 12 10 9 9 9 8 8 8
11 10 16 16 15 15 15 13 9 10 10 10 11 12 12 11 11 11 11 12 12 11 10 10 10 11 9 10 10 11 12 11 10 10 8 7 5 5
14 8 8 9 10 10 10 10 10 10 10 10 11 12 12 12 11 11 11 11 11 11 10 9 10 9 8 7 8 10 11 11 10 8 7 5 5 6
11 8 8 9 10 11 11 11 11 11 10 11 11 11 11 12 12 11 11 10 10 10 9 8 10 8 5 5 9 9 9 8 8 8 7 6 8 10
8 8 8 9 10 10 10 11 11 11 12 10 11 11 10 11 13 11 11 10 10 9 8 8 8 5 5 7 8 11 11 8 8 8 8 7 8 11
8 8 9 9 10 10 10 11 11 11 10 10 10 11 10 10 10 10 10 10 9 8 8 8 6 5 3 5 6 9 16 12 10 10 9 8 10 15
8 9 9 10 10 10 10 11 11 12 13 11 11 11 10 10 10 10 9 13 11 8 8 7 9 10 5 4 4 6 11 17 18 14 12 9 11 15
9 9 10 10 10 10 10 11 11 12 12 11 11 10 10 10 10 10 8 8 7 6 6 6 8 7 5 6 6 7 9 11 16 22 25 22 15 14
9 10 10 10 10 10 10 11 12 11 11 11 11 10 10 10 10 8 7 6 6 5 4 5 6 5 5 6 6 7 9 10 9 12 16 25 27 27
Wind_Direction
304 301 301 292 292 293 292 287 293 304 302 301 299 298 266 275 285 291 280 285 293 295 296 296 296 293 289 289 289 288 288 287 286 285 282 279 278 279
303 310 299 294 305 304 297 290 282 287 294 301 307 302 295 294 290 293 293 295 291 291 292 294 292 286 287 290 292 292 290 289 282 280 277 275 270 267
296 301 299 299 307 304 297 293 287 283 286 294 303 307 299 292 293 296 295 285 280 284 289 290 287 287 287 291 292 290 287 284 284 282 281 279 278 277
297 301 295 303 308 302 298 293 287 283 283 293 300 301 293 292 297 294 291 289 287 286 290 291 292 291 292 291 286 284 288 289 283 280 277 276 273 270
287 284 287 305 307 298 292 290 292 294 293 290 290 297 296 305 303 296 297 297 295 293 296 297 296 297 294 294 293 294 295 292 288 282 279 275 274 273
275 275 282 291 294 295 295 304 310 302 297 291 294 300 300 310 304 305 305 303 296 297 295 293 294 295 297 299 297 295 291 287 281 273 272 273 271 270
281 274 274 292 306 306 308 311 305 300 297 297 296 295 308 309 306 304 299 298 300 310 295 288 288 285 285 285 284 283 280 278 273 272 276 275 271 267
287 283 284 293 298 307 310 305 304 305 304 303 308 308 305 303 298 296 298 313 315 305 292 295 289 283 279 273 275 280 284 284 280 279 279 275 273 270
306 299 301 304 304 296 291 295 300 305 311 311 305 296 296 294 296 302 299 293 293 298 294 288 286 278 276 274 282 283 282 280 277 277 274 269 265 263
302 297 292 291 292 299 302 309 310 307 298 293 290 293 294 299 300 301 297 290 286 288 283 284 287 280 279 275 277 279 280 281 279 278 276 274 266 261
299 294 298 304 306 313 324 323 316 305 303 306 308 310 309 308 308 305 300 302 297 293 291 286 287 284 279 272 267 275 278 279 282 281 277 274 271 264
301 300 305 312 321 330 332 331 319 310 314 319 315 308 305 301 304 304 296 292 292 293 290 288 286 287 284 270 268 272 276 279 280 283 284 276 268 261
312 310 310 323 332 335 335 326 313 324 334 324 310 305 302 301 301 297 288 284 287 286 293 296 293 289 283 286 289 286 287 284 283 282 278 272 265 255
314 315 324 331 335 335 332 325 329 336 325 312 309 309 309 305 300 296 291 284 278 281 287 290 288 295 296 296 296 298 295 280 274 271 261 259 261 254
325 333 334 333 335 333 327 330 332 326 315 311 312 310 305 301 299 296 293 290 284 280 282 281 283 291 289 293 295 297 298 291 284 280 278 267 258 238
324 337 334 333 330 326 325 324 323 319 317 314 310 307 307 307 306 305 301 302 299 296 290 283 289 291 293 289 284 285 288 291 297 300 299 293 282 257
339 340 329 327 325 324 323 322 321 320 318 314 311 310 310 311 309 309 303 304 302 305 311 314 307 298 281 263 277 281 291 295 302 312 318 320 328 332
339 326 323 323 322 321 320 319 319 320 317 314 309 307 307 310 310 310 309 307 307 311 316 319 321 326 320 273 251 287 308 316 325 336 345 359 10 360
328 319 319 318 317 315 313 313 314 314 313 308 304 304 307 305 309 311 312 313 313 317 320 319 322 327 330 325 312 327 344 347 351 1 4 5 11 15
321 319 317 315 313 312 312 311 311 311 309 306 305 304 303 304 306 308 311 314 319 324 321 324 327 328 311 305 306 321 352 10 9 7 2 14 27 29
320 318 314 312 310 309 308 308 307 306 308 308 303 302 303 304 302 304 308 320 329 327 325 329 328 335 324 322 336 347 1 18 33 32 15 7 23 30
319 316 314 312 309 307 307 307 306 307 306 303 301 301 301 301 301 303 307 314 319 318 312 316 326 337 352 12 15 9 11 17 26 37 42 45 42 43
319 314 312 309 306 304 304 304 303 301 299 298 298 299 302 303 302 299 302 306 312 316 314 323 334 342 354 10 24 21 21 24 28 34 36 39 49 54